カタログに戻る

THE ARAB SATELLITE 813

運用中通信SSO
NORAD 66994·PAYLOAD·🇨🇳 China

打ち上げ Dec 10, 2025 から Jiuquan Satellite Launch Center

Loading…

次のパス (今後24時間)

TLE

最新Source: Space-Track

元期: Sep 14, 2026, 03:29 UTC

1 66994U 25292B   26257.14569173  .00003577  00000-0  24165-3 0  9995
2 66994  97.6266 332.1168 0015718  60.4904 299.7889 15.07128673 41840

AllMySatでTHE ARAB SATELLITE 813をリアルタイム追跡

Download on the App Store